FW8525 Weather Reports


Display with metric or nautical units.
time (UTC)temp
F
wind
direction
speed
MPH
gust
MPH
rain 1hr
in
rain 24hr
in
rain mn
in
humidity
%
barometer
mb
20260507000037 69 0 0.0 0.0 0.00 0.00 0.00 78 1009.5
20260506234534 70 0 0.0 0.0 0.00 0.00 0.00 77 1009.4
20260506233032 70 0 0.0 0.0 0.00 0.00 0.00 76 1009.5
20260506231537 71 0 0.0 0.0 0.00 0.00 0.00 76 1009.3
20260506230035 71 0 0.0 0.0 0.00 0.00 0.00 75 1009.5
20260506224532 71 0 0.0 0.0 0.00 0.00 0.00 75 1009.5
20260506223034 71 0 0.0 0.0 0.00 0.00 0.00 74 1009.3
20260506221533 71 0 0.0 0.0 0.00 0.00 0.00 74 1009.4
20260506220034 71 0 0.0 0.0 0.00 0.00 0.00 74 1009.3
20260506214532 71 0 0.0 0.0 0.00 0.00 0.00 74 1009.1
20260506213036 71 0 0.0 0.0 0.00 0.00 0.00 75 1009.2
20260506211533 71 0 0.0 9.0 0.00 0.00 0.00 75 1009.1
20260506210038 71 0 0.0 0.0 0.00 0.00 0.00 75 1009.0
20260506204534 71 0 0.0 7.0 0.00 0.00 0.00 75 1009.0
20260506203041 71 0 0.0 10.0 0.00 0.00 0.00 75 1008.7
20260506201534 71 0 1.0 12.0 0.00 0.00 0.00 73 1008.8
20260506200044 72 0 0.0 0.0 0.00 0.00 0.00 74 1009.3
20260506194532 72 0 0.0 0.0 0.00 0.00 0.00 73 1009.5
20260506193032 72 0 0.0 0.0 0.00 0.00 0.00 74 1009.4
20260506191533 72 0 0.0 0.0 0.00 0.00 0.00 73 1009.7
20260506190035 72 225 0.0 11.0 0.00 0.00 0.00 74 1010.1
20260506184533 71 0 0.0 8.0 0.00 0.00 0.00 75 1010.0
20260506183035 70 0 0.0 10.0 0.00 0.00 0.00 78 1010.2
20260506181537 69 0 0.0 7.0 0.00 0.00 0.00 78 1010.6
20260506180040 69 0 2.0 16.0 0.00 0.00 0.00 79 1010.7
20260506174532 69 0 0.0 0.0 0.00 0.00 0.00 78 1010.5
20260506173032 69 0 1.0 14.0 0.00 0.00 0.00 77 1010.7
20260506171546 69 225 0.0 15.0 0.00 0.00 0.00 77 1011.1
20260506170037 68 0 0.0 12.0 0.00 0.00 0.00 78 1011.1
20260506164537 69 225 1.0 12.0 0.00 0.00 0.00 74 1011.6
20260506163041 71 0 2.0 14.0 0.00 0.00 0.00 71 1011.9
20260506161544 73 0 0.0 0.0 0.00 0.00 0.00 67 1012.0
20260506160031 74 0 0.0 8.0 0.00 0.00 0.00 64 1012.0
20260506154533 74 0 0.0 0.0 0.00 0.00 0.00 66 1012.2
20260506153036 73 0 0.0 14.0 0.00 0.00 0.00 66 1011.9
20260506151534 73 0 0.0 1.0 0.00 0.00 0.00 67 1011.9
20260506150036 73 0 0.0 16.0 0.00 0.00 0.00 66 1012.1
20260506144532 73 0 0.0 11.0 0.00 0.00 0.00 67 1011.9
20260506143034 73 0 0.0 0.0 0.00 0.00 0.00 65 1012.1
20260506141533 73 0 0.0 0.0 0.00 0.00 0.00 65 1011.9
20260506140035 72 0 0.0 8.0 0.00 0.00 0.00 66 1012.1
20260506134606 71 0 2.0 15.0 0.00 0.00 0.00 68 1012.3
20260506133032 71 0 0.0 17.0 0.00 0.00 0.00 69 1012.4
20260506131534 70 225 0.0 11.0 0.00 0.00 0.00 69 1012.4
20260506130032 69 225 0.0 16.0 0.00 0.00 0.00 72 1012.6
20260506124531 68 0 0.0 15.0 0.00 0.00 0.00 72 1012.7
20260506123030 68 0 0.0 11.0 0.00 0.00 0.00 72 1012.7
20260506121536 68 0 0.0 1.0 0.00 0.00 0.00 74 1012.6
20260506120033 66 0 0.0 0.0 0.00 0.00 0.00 77 1012.6
20260506114540 64 0 0.0 0.0 0.00 0.00 0.00 78 1012.7
20260506113036 64 0 0.0 0.0 0.00 0.00 0.00 78 1012.6
20260506111534 64 0 0.0 0.0 0.00 0.00 0.00 79 1012.5
20260506110034 62 0 0.0 0.0 0.00 0.00 0.00 80 1012.6
20260506104534 62 0 0.0 0.0 0.00 0.00 0.00 81 1012.7
20260506103034 61 0 0.0 0.0 0.00 0.00 0.00 81 1012.9
20260506101532 61 0 0.0 0.0 0.00 0.00 0.00 82 1012.8
20260506100035 61 0 0.0 0.0 0.00 0.00 0.00 81 1012.5
20260506094531 61 0 0.0 0.0 0.00 0.00 0.00 81 1012.5
20260506093032 61 0 0.0 0.0 0.00 0.00 0.00 81 1012.7
20260506091532 61 0 0.0 0.0 0.00 0.00 0.00 82 1012.6
20260506090031 61 0 0.0 0.0 0.00 0.00 0.00 82 1012.7
20260506084532 61 0 0.0 0.0 0.00 0.00 0.00 82 1012.8
20260506083034 61 0 0.0 0.0 0.00 0.00 0.00 82 1012.7
20260506081537 62 0 0.0 0.0 0.00 0.00 0.00 81 1012.9
20260506073034 63 0 0.0 0.0 0.00 0.00 0.00 80 1012.8
20260506071534 63 0 0.0 0.0 0.00 0.00 0.00 80 1012.7
20260506061539 64 0 0.0 0.0 0.00 0.00 0.00 80 1013.0
20260506044540 65 0 0.0 0.0 0.00 0.00 0.00 79 1013.6
20260506043038 65 0 0.0 0.0 0.00 0.00 0.00 79 1013.4
20260506041539 65 0 0.0 0.0 0.00 0.00 0.00 78 1013.4
20260506040036 65 0 0.0 0.0 0.00 0.00 0.00 78 1013.4
20260506034535 66 0 0.0 0.0 0.00 0.00 0.00 77 1013.4
20260506033035 66 0 0.0 0.0 0.00 0.00 0.00 77 1013.4
20260506031538 66 0 0.0 0.0 0.00 0.00 0.00 76 1013.4
20260506030032 67 0 0.0 0.0 0.00 0.00 0.00 75 1013.4
20260506024539 67 0 0.0 0.0 0.00 0.00 0.00 75 1013.4
20260506023032 67 0 0.0 0.0 0.00 0.00 0.00 75 1013.4
20260506021532 67 0 0.0 1.0 0.00 0.00 0.00 74 1013.4
20260506020034 67 0 0.0 7.0 0.00 0.00 0.00 74 1013.3
20260506014534 68 0 0.0 7.0 0.00 0.00 0.00 73 1013.3
20260506013033 68 0 0.0 2.0 0.00 0.00 0.00 73 1013.2
20260506011558 68 0 0.0 0.0 0.00 0.00 0.00 73 1013.0
20260506010031 68 0 0.0 6.0 0.00 0.00 0.00 72 1012.9
20260506004544 68 0 0.0 9.0 0.00 0.00 0.00 72 1012.8
20260506003032 69 0 0.0 5.0 0.00 0.00 0.00 71 1012.6
20260506001542 69 0 0.0 4.0 0.00 0.00 0.00 70 1012.6